Theta_e
349 348 346 344 338 336 332 331 329 326 324 321 319 319 318 318 319 319 319 319 320 319 318 318 317 316 316 316 315 316 316 316 317 315 314 313 312 310 310 309 309 310 311
347 343 340 337 334 331 329 327 324 323 321 320 319 318 317 318 319 318 318 318 317 317 317 316 316 315 315 315 314 315 315 314 314 315 313 312 310 308 307 306 308 309 309
339 336 335 333 331 329 327 324 323 321 320 318 317 317 317 317 317 317 317 317 317 316 316 316 315 314 313 312 311 312 313 312 312 312 312 310 307 306 304 305 305 305 307
333 330 331 328 327 324 323 321 320 319 318 317 316 316 316 316 316 316 317 317 317 316 316 315 314 311 309 308 308 310 311 311 311 310 310 307 304 304 303 303 303 304 304
329 328 326 323 322 320 319 318 317 317 316 316 315 313 311 308 308 312 316 317 316 315 315 314 313 310 307 304 305 307 309 311 310 310 308 305 304 302 302 302 303 303 304
326 324 322 320 318 317 317 317 316 316 315 315 314 312 309 304 308 311 314 316 316 315 314 313 312 310 306 303 304 310 311 310 309 308 307 306 304 302 302 302 302 304 306
323 320 319 318 317 317 317 316 316 315 315 314 313 310 305 302 305 309 312 315 315 313 312 308 307 307 301 301 304 310 311 311 308 307 306 305 303 302 302 302 302 303 305
323 321 319 318 317 316 316 315 315 314 314 314 313 310 305 299 303 307 309 313 313 312 310 308 304 302 299 299 302 309 309 310 308 306 304 304 304 304 303 302 302 304 304
321 319 317 316 315 315 315 315 314 314 313 312 311 309 306 298 299 304 307 309 310 309 308 304 300 299 298 298 301 305 306 307 306 307 303 303 301 301 302 302 303 304 304
318 316 316 315 315 314 314 314 313 312 311 309 306 304 303 302 298 298 302 304 305 305 305 303 301 297 297 298 298 302 303 303 305 307 304 301 299 300 300 301 303 305 304
315 315 314 314 313 313 313 312 312 310 309 307 306 305 300 297 295 294 294 297 298 303 301 298 298 297 299 299 300 300 300 301 305 305 304 301 300 299 299 300 303 305 304
313 313 312 312 312 312 312 312 311 311 310 309 307 304 303 301 297 295 295 295 293 300 298 296 296 297 299 300 300 300 301 302 303 303 303 302 300 300 299 300 303 304 304
311 311 311 311 311 311 310 310 310 309 309 308 307 306 302 298 296 294 294 294 295 296 297 295 296 297 298 300 300 300 301 302 301 301 302 302 301 300 300 300 301 302 303
310 310 309 308 308 307 307 306 304 306 307 307 306 304 300 294 290 290 292 293 294 295 296 297 296 296 296 296 297 298 299 299 301 301 302 302 302 302 301 301 301 302 303
307 306 305 302 298 295 294 298 295 294 298 297 295 293 294 291 288 288 289 290 291 293 296 296 296 295 295 295 295 296 296 296 299 300 302 301 302 303 302 302 302 302 302
306 305 303 300 298 295 293 289 288 289 290 291 292 292 288 287 288 289 290 291 292 293 295 295 294 294 295 295 295 295 295 295 297 298 300 300 301 302 302 303 302 302 303
306 305 303 302 301 299 296 294 291 289 289 289 289 288 288 288 290 291 292 292 292 294 294 294 293 293 293 294 294 294 295 294 296 296 297 299 301 302 303 303 302 302 302
306 305 304 303 302 302 302 300 298 298 296 293 291 291 291 291 291 291 293 294 294 293 293 292 292 292 292 292 293 293 294 294 295 296 297 298 300 301 302 302 303 302 301
304 304 304 303 302 301 300 299 298 298 297 297 296 293 293 293 292 292 292 293 293 292 292 291 291 291 291 291 291 292 293 293 293 295 296 297 298 301 302 303 302 302 301
301 300 300 300 299 299 299 298 297 296 295 294 294 294 294 294 294 293 292 292 292 291 291 291 290 289 290 290 290 290 291 291 292 294 295 297 296 299 301 302 301 301 300
299 299 299 299 299 298 298 297 296 295 294 292 291 291 292 294 293 292 292 291 291 290 290 290 289 289 288 288 288 288 289 289 291 292 295 295 296 297 299 301 302 300 299
298 298 298 298 297 297 297 296 296 295 295 294 293 291 292 292 292 292 291 291 290 290 289 289 289 288 287 287 287 287 287 287 289 291 292 295 295 295 297 299 302 300 298
298 297 297 296 295 296 296 296 295 295 294 293 293 292 292 292 291 291 291 291 290 290 289 289 288 288 287 286 285 285 285 285 287 289 290 293 294 293 295 297 301 299 296
297 296 297 296 296 295 294 294 293 293 294 293 292 292 291 291 291 291 290 290 290 289 289 288 288 286 286 284 284 283 284 285 286 287 290 292 293 293 294 295 299 297 295
297 296 296 296 296 295 295 294 294 293 293 292 292 291 291 290 290 290 290 290 290 289 289 288 287 285 285 283 282 282 284 286 287 288 290 291 292 292 293 294 298 296 294
297 296 296 296 296 295 295 294 293 293 292 292 292 291 290 290 290 290 289 289 289 289 289 288 288 286 283 282 281 281 283 286 287 288 290 290 290 292 291 294 296 294 293
Wind_Speed
33 30 29 31 28 25 24 22 21 20 18 15 12 9 7 8 8 9 7 8 10 9 9 10 12 12 14 15 17 17 20 21 16 28 28 30 29 31 32 32 32 31 31
31 32 33 31 27 25 24 23 20 19 17 14 11 9 9 10 10 9 9 10 11 10 11 12 13 14 14 15 18 19 19 22 23 21 29 28 28 29 31 34 29 30 31
33 34 32 29 27 26 25 22 20 19 17 14 12 11 11 11 10 11 10 10 10 10 11 11 13 14 15 16 17 19 21 22 23 24 25 27 29 29 32 31 31 32 31
34 33 31 28 28 26 25 22 20 18 16 14 13 12 12 12 11 11 11 11 10 9 10 10 10 13 16 18 19 19 19 21 23 23 25 27 29 29 26 27 34 34 36
34 33 30 29 28 26 25 22 19 17 16 15 15 15 14 14 12 9 10 10 9 9 10 12 11 13 19 20 19 18 20 22 23 23 23 23 26 28 25 28 28 34 35
34 33 30 30 28 26 23 21 19 18 17 17 16 15 15 14 14 13 12 9 9 10 11 12 12 14 19 23 24 18 23 21 18 20 23 22 26 26 27 27 29 26 8
35 33 31 29 27 24 22 21 20 19 18 17 16 15 15 14 11 10 9 7 8 8 10 12 14 16 22 26 24 23 21 21 15 20 24 24 25 27 29 31 31 28 25
35 32 30 28 26 23 22 21 20 19 18 16 15 14 13 14 9 6 6 6 7 8 10 11 16 19 23 29 22 23 22 19 20 20 27 28 26 26 29 28 30 27 23
33 30 28 26 25 23 22 21 19 18 17 15 14 12 12 15 14 10 11 8 9 10 11 14 14 19 22 28 21 23 23 22 22 23 30 25 27 24 28 34 27 23 17
31 30 27 25 24 24 22 20 19 17 16 15 14 14 14 13 18 16 15 12 10 12 10 13 20 24 20 24 20 24 25 27 25 24 36 33 33 28 30 34 30 21 18
32 30 28 26 25 23 22 19 18 17 16 14 14 14 14 18 19 22 22 15 13 13 13 16 17 23 21 21 21 23 23 28 23 25 26 30 35 35 35 35 34 25 20
32 30 28 25 23 22 21 18 16 15 13 12 11 12 13 13 18 20 23 22 20 11 14 16 17 20 22 15 20 25 25 24 23 23 25 27 32 36 37 35 33 31 23
31 29 28 26 23 20 19 17 15 11 10 10 11 11 12 14 15 18 19 19 18 13 13 13 19 20 20 18 21 24 23 25 25 24 25 26 30 35 34 33 32 31 22
32 30 27 26 23 20 19 18 17 13 12 12 11 10 11 14 17 19 17 17 17 15 16 16 17 18 18 20 21 23 24 26 25 24 23 26 28 30 33 33 31 31 22
31 30 28 26 25 26 25 19 19 23 18 15 13 11 12 13 13 20 20 20 20 17 16 16 19 20 22 23 23 24 25 28 26 26 25 29 29 29 31 31 30 28 25
29 26 25 25 25 25 26 28 29 25 22 18 16 14 14 14 14 16 18 25 21 22 18 19 20 21 22 23 24 25 26 28 27 27 27 27 27 29 31 30 30 29 26
28 26 26 24 22 22 21 22 23 23 23 23 25 25 22 16 16 16 15 16 24 21 21 20 21 21 22 22 23 25 25 28 26 26 27 27 27 29 29 31 29 30 28
24 24 23 21 20 18 16 15 14 13 13 13 17 15 23 24 24 24 21 18 19 21 21 21 21 21 22 23 24 25 25 26 27 26 27 29 28 27 28 28 29 28 27
23 21 21 19 18 17 16 15 14 13 13 12 9 12 14 16 19 22 21 20 19 19 20 20 21 22 22 23 24 24 25 25 27 26 27 28 29 26 26 26 30 28 28
23 23 22 20 18 17 16 16 15 15 14 13 13 12 13 15 17 18 19 19 18 19 19 20 21 21 23 24 25 26 26 26 27 27 28 28 29 27 26 25 28 27 28
22 19 20 19 17 16 16 16 15 15 15 16 16 15 14 13 15 16 17 18 18 18 19 20 21 22 23 24 25 26 26 25 26 25 28 29 29 28 27 26 24 29 26
21 20 20 19 18 17 16 15 14 14 13 13 12 14 14 14 14 15 15 16 16 17 17 19 20 22 23 24 25 26 26 26 25 26 28 29 28 30 27 26 25 27 26
21 21 20 20 19 17 15 14 14 13 13 12 12 12 13 14 13 13 14 14 15 16 17 18 20 21 22 22 23 24 25 25 22 27 27 27 27 30 27 26 24 28 28
21 21 19 18 17 16 15 14 14 14 13 12 12 12 12 12 12 13 12 13 14 15 16 17 18 20 22 23 23 24 24 26 25 27 25 26 25 28 26 26 25 27 27
20 19 18 17 16 16 15 14 13 12 12 11 11 11 11 11 11 12 12 12 13 14 14 16 18 19 20 22 25 27 24 24 26 28 25 25 24 27 26 25 26 26 27
18 17 16 16 15 15 14 13 12 11 10 10 10 10 10 10 10 10 11 12 12 13 13 15 16 18 20 21 26 28 26 24 26 28 26 25 25 25 26 25 25 27 26
Wind_Direction
141 136 131 120 119 120 120 120 118 116 111 104 97 96 96 78 66 58 56 42 39 31 17 13 12 2 355 343 341 337 331 334 325 328 325 334 336 338 332 329 328 325 325
138 121 118 118 123 122 118 116 115 112 107 104 106 98 83 73 67 62 52 43 35 28 28 21 10 3 353 351 343 341 335 337 334 323 331 334 336 336 331 326 326 326 326
118 116 117 119 121 119 117 116 115 108 104 103 98 87 80 76 70 61 49 42 40 34 25 14 8 3 356 347 343 343 341 338 334 334 327 332 329 332 328 329 327 324 324
116 116 118 122 120 117 114 110 107 105 102 99 93 91 83 73 61 53 47 43 34 28 20 9 8 4 355 349 345 340 339 336 337 331 330 329 328 326 327 325 325 327 323
118 117 118 118 116 113 110 108 106 105 105 104 98 88 77 63 57 58 37 37 31 26 19 12 4 7 359 350 344 335 332 330 328 324 326 321 327 333 334 324 319 317 318
116 116 117 114 111 109 110 110 111 109 106 101 95 87 71 56 63 66 54 28 29 23 17 9 4 2 352 349 350 355 341 320 309 327 320 323 326 325 325 325 319 317 321
116 117 117 116 115 116 115 113 110 107 104 97 89 80 67 51 52 62 56 31 26 21 16 12 7 1 353 354 351 354 347 350 356 336 332 324 317 327 330 327 323 317 319
118 119 119 119 116 116 113 108 107 105 101 95 87 79 67 44 44 53 43 25 15 15 10 10 4 360 353 357 354 348 347 351 348 350 347 334 324 335 342 331 317 319 325
117 118 118 118 116 115 111 109 109 107 102 96 87 77 64 43 36 34 35 9 12 4 2 356 14 4 360 6 1 351 348 351 352 353 355 355 346 346 352 347 338 340 334
118 116 116 115 113 111 110 110 110 108 103 97 86 71 63 43 32 29 30 21 12 3 9 358 349 4 5 15 5 357 352 347 344 345 356 356 356 354 352 351 336 336 337
114 113 112 111 110 110 111 110 109 105 102 93 85 73 60 55 32 32 31 28 11 1 3 359 354 1 7 5 11 357 354 352 352 354 353 354 358 357 352 349 348 341 336
112 112 112 111 110 109 108 108 105 104 100 96 90 75 60 45 30 22 22 22 21 8 6 1 357 4 5 8 3 359 6 4 1 357 351 355 355 353 350 348 351 358 2
113 112 110 109 107 106 105 103 100 98 94 86 78 68 53 34 24 23 19 16 10 10 356 1 8 7 5 6 4 4 7 4 3 359 353 355 352 349 350 354 355 356 2
113 110 109 106 103 95 87 77 66 52 82 69 65 60 56 42 31 23 20 18 16 14 3 11 13 12 14 11 10 8 9 3 359 357 354 351 351 352 355 356 353 354 359
111 110 104 94 88 82 77 81 74 61 75 71 66 62 51 43 30 43 37 26 17 2 10 18 18 17 13 13 13 9 8 4 360 359 359 356 353 355 357 356 0 360 3
115 111 112 110 105 100 95 84 77 79 78 79 80 79 60 60 50 46 46 42 33 26 26 23 20 17 15 12 11 8 8 2 0 1 360 357 355 355 357 360 4 4 1
115 118 115 114 112 109 104 99 95 81 76 71 67 66 67 64 57 48 38 45 37 32 30 22 18 18 13 12 10 10 6 1 1 5 360 357 358 357 0 3 4 5 3
116 118 116 116 115 116 115 115 116 114 104 89 73 67 60 58 54 49 44 45 39 34 31 23 15 15 13 11 9 7 5 4 0 4 0 358 359 360 1 4 5 6 2
115 112 112 110 107 106 105 102 98 88 80 83 93 71 48 52 52 44 43 43 38 34 29 26 17 12 12 11 8 6 5 6 2 3 359 0 358 359 3 8 5 6 7
103 107 113 115 115 111 110 106 98 88 79 69 60 50 37 49 45 42 41 39 36 34 28 26 21 13 10 10 8 6 6 6 5 1 357 359 1 360 5 8 13 6 6
116 114 111 111 110 108 102 97 95 93 87 77 67 59 51 55 50 46 41 38 34 32 27 25 22 16 12 10 8 7 6 5 5 1 354 358 5 357 5 6 12 12 9
117 115 111 109 108 104 101 98 94 90 87 86 84 64 59 58 54 49 45 40 34 32 28 27 23 19 14 11 9 6 4 3 3 360 348 356 6 355 5 6 13 13 10
115 113 108 105 107 109 101 98 95 91 85 78 72 64 59 55 52 48 46 42 37 32 29 29 24 20 16 13 11 9 4 0 359 352 345 358 4 358 4 5 18 14 8
117 116 114 109 105 103 100 97 89 81 81 78 70 64 60 57 52 48 42 42 40 36 31 29 25 21 17 15 12 10 9 12 10 358 0 4 2 6 5 9 21 15 11
111 111 113 114 112 110 105 96 91 87 82 78 73 67 62 56 50 46 41 37 39 36 31 29 25 19 17 15 14 16 19 23 22 16 15 9 8 12 7 13 20 15 13
115 116 117 116 113 109 107 103 97 93 88 82 77 71 64 58 50 44 39 34 34 34 31 26 23 19 18 13 15 19 22 27 25 23 21 14 14 16 13 14 22 20 14